www.pogodaiklimat.ru

Погода и климат >> Архив погоды >> Россия >> Якутия >> Усть-Чаркы


ПОГОДА в Усть-Чарках

  • Прогноз погоды в Усть-Чарках
  • Монитор погоды в Усть-Чарках
  • Климат города

АРХИВ ПОГОДЫ в Усть-Чарках

Время (UTC), дата Ветер
(напр.,м/с)
 
Видим.   Явления Облачность Т
(С)
Тd
(С)
f
(%)
Тe
(С)
Тes
(С)
Комфортность P
(гПа)
Po
(гПа)
Тmin
(С)
Tmax
(С)
R
(мм)
S
(см)
06 17.03 ЮВ 2 50 км ясно -5.7 -17.2 40 -9 -8 1017.4 982.5
09 17.03 штиль 0 50 км ясно -9.5 -19.4 44 -10 -10 1018.6 983.3 -4.4
12 17.03 штиль 0 50 км ясно -22.7 -25.2 80 -23 -23 1021.6 984.2
15 17.03 штиль 0 50 км ясно -26.2 -27.9 86 -26 -26 1022.4 984.5
18 17.03 штиль 0 50 км 6/0
[Ci fib]
-23.1 -25.0 84 -23 -23 1022.4 985.0
21 17.03 штиль 0 20 км слабый снег 10/0
[As op]
-20.4 -22.3 85 -20 -20 1022.2 985.2 -26.4 39
00 18.03 штиль 0 50 км в посл. час снег 10/0
[As op]
-16.9 -18.8 85 -17 -16 1022.4 985.8
03 18.03 В 2 50 км 10/1 1000 м
[Cu med, cong Ac trans Cs]
-7.8 -14.5 59 -12 -10 1021.3 986.0
06 18.03 ЮВ 4 50 км позёмок {метель} 4/0
[Ac trans]
-7.3 -18.2 41 -13 -13 1021.5 986.3
09 18.03 ЮВ 1 50 км {метель} 3/0
[Ci fib]
-11.4 -22.3 40 -14 -14 1023.0 987.2 -5.4 0.2
12 18.03 штиль 0 50 км {метель} ясно -24.2 -28.1 70 -24 -24 1025.9 988.2
15 18.03 штиль 0 50 км ясно -27.8 -30.3 79 -28 -28 1026.9 988.5
18 18.03 штиль 0 50 км ясно -30.0 -31.7 85 -30 -30 1027.6 988.9
21 18.03 штиль 0 50 км ясно -32.0 -33.7 85 -32 -32 опасность
обморожения
1028.4 989.4 -32.0 39
00 19.03 штиль 0 50 км 3/0
[Cc]
-25.9 -28.4 79 -26 -24 1027.7 989.6 -32.2
03 19.03 штиль 0 50 км ясно -11.8 -20.1 50 -12 -7 1024.2 988.2
06 19.03 ЮВ 2 50 км ясно -7.9 -17.9 44 -12 -10 1022.9 987.5
09 19.03 Ю 2 50 км 3/0
[Cc]
-10.1 -18.6 50 -14 -14 1023.6 987.9 -6.2
12 19.03 штиль 0 50 км ясно -21.8 -25.0 75 -22 -22 1026.3 988.9
15 19.03 штиль 0 50 км ясно -25.4 -27.2 85 -25 -25 1027.0 989.1
18 19.03 штиль 0 50 км ясно -27.7 -29.4 85 -28 -28 1028.2 989.7
21 19.03 ЮВ 2 50 км 5/0
[Ac trans Ci fib]
-26.8 -28.7 84 -34 -34 опасность
обморожения
1027.9 989.6 -28.0 39
00 20.03 В 2 50 км 10/0
[Ac As Cs]
-18.7 -22.8 70 -24 -23 1026.6 989.5
03 20.03 В 2 50 км 3/0
[Ci fib]
-13.5 -20.6 55 -18 -15 1024.9 988.8
06 20.03 ЮВ 2 50 км 10/0
[Ac trans Cc]
-10.2 -18.7 50 -15 -14 1024.0 988.3
09 20.03 Ю 2 50 км 10/0
[Ac und Ci ing]
-10.1 -18.6 50 -14 -14 1024.1 988.4 -9.3
12 20.03 ЮВ 1 50 км 10/0
[Ac und]
-10.5 -16.8 60 -13 -13 1024.4 988.7
15 20.03 В 1 50 км 10/0
[Ac und Ci ing]
-10.7 -17.0 60 -13 -13 1024.6 988.8
18 20.03 штиль 0 50 км 10/0
[Ac und Ci ing]
-11.3 -17.5 60 -11 -11 1024.6 988.8
21 20.03 штиль 0 50 км 9/4 1000 м
[Sc Ac trans]
-13.8 -16.5 80 -14 -14 1025.5 989.3 -15.4 39
00 21.03 штиль 0 50 км 1/0
[Ci fib]
-11.4 -15.8 70 -12 -9 1025.2 989.4 -16.1
03 21.03 ЮВ 1 50 км ясно -8.0 -14.8 58 -10 -6 1024.8 989.4
06 21.03 ЮВ 1 50 км 4/0
[Cc]
-5.4 -14.1 50 -7 -5 1022.9 987.9
09 21.03 ЮВ 1 50 км 8/0
[Ci fib]
-6.5 -14.2 54 -8 -8 1022.5 987.4 -4.0
12 21.03 штиль 0 50 км 3/0
[Ci fib]
-16.6 -19.2 80 -17 -17 1024.7 988.0
15 21.03 штиль 0 50 км ясно -20.7 -21.9 90 -21 -21 1024.8 987.5
18 21.03 ЮВ 1 50 км 4/0
[Ci fib]
-21.2 -22.4 90 -24 -24 1024.4 987.1
21 21.03 штиль 0 50 км ясно -23.0 -24.3 89 -23 -23 1024.8 987.2 -23.2 39
00 22.03 В 2 50 км ясно -15.3 -18.7 75 -20 -18 1023.5 987.1 -24.9
03 22.03 ЮВ 2 50 км ясно -9.8 -17.6 53 -14 -10 1022.2 986.5
06 22.03 ЮВ 1 50 км ясно -5.3 -15.7 44 -7 -5 1020.7 985.7
09 22.03 штиль 0 50 км 10/0
[Cs]
-8.2 -17.7 46 -8 -8 1021.4 986.1 -4.7
12 22.03 штиль 0 50 км ясно -20.6 -23.1 80 -21 -21 1025.2 987.9
15 22.03 штиль 0 50 км ясно -20.6 -23.1 80 -21 -21 1025.2 987.9
18 22.03 штиль 0 50 км 3/0
[Ci fib]
-22.9 -24.2 89 -23 -23 1028.0 990.3
21 22.03 штиль 0 50 км ясно -27.2 -28.4 89 -27 -27 1029.5 991.2 -27.2 39
00 23.03 В 2 50 км ясно -18.3 -21.6 75 -24 -22 1028.7 991.8 -28.1
03 23.03 В 1 50 км ясно -12.3 -19.5 55 -15 -10 1027.2 991.1
06 23.03 В 1 50 км ясно -8.7 -18.6 45 -11 -8 1024.7 989.2
09 23.03 ЮВ 1 50 км ясно -9.6 -18.0 50 -12 -12 1023.9 988.4 -6.8
12 23.03 штиль 0 50 км ясно -23.2 -25.7 80 -23 -23 1025.6 988.0
15 23.03 штиль 0 50 км ясно -28.1 -30.5 80 -28 -28 1025.7 987.4
18 23.03 штиль 0 50 км ясно -30.1 -32.6 79 -30 -30 1025.7 987.0
21 23.03 штиль 0 50 км ясно -30.2 -31.9 85 -30 -30 1025.2 986.5 -30.4 39
00 24.03 ЮВ 2 50 км ясно -18.3 -20.9 80 -24 -22 1022.3 985.6

 

Местоположение метеостанции Усть-Чаркы (Якутия, Россия): широта 66.80 долгота 136.60 высота над уровнем моря 274 м.

В архиве по умолчанию представлена погода в Усть-Чарках за последнюю неделю. Архивные данные за месяц целиком и за предыдущие месяцы, начиная с января 2011 года, Вы можете получить, выбрав интересующий диапазон дат из раскрывающегося списка и нажав кнопку "Ввод!".

Внимание! Время в таблицах - всемирное. Для получения местного времени необходимо прибавить поправку, которая в Усть-Чарках равна 10 ч.

Смотрите также архив погоды в соседних городах и на ближайших метеорологических станциях:

Погода в Батагае (Якутия, Россия) (128 км)
Погода в Верхоянске (Якутия, Россия) (162 км)
Погода в Иэме (Якутия, Россия) (171 км)
Погода в Екюччю (Якутия, Россия) (219 км)
Погода в Батагай-Алыте (Якутия, Россия) (288 км)
Погода в Усть-Моме (Якутия, Россия) (294 км)
Погода в Депутатском (Якутия, Россия) (316 км)
Погода в Томпо (Якутия, Россия) (319 км)
Погода в Себян-Кюеле (Якутия, Россия) (341 км)
Погода в Усть-Куйге (Якутия, Россия) (358 км)

Пояснения к столбцам:

Ветер - указаны скорость ветра в м/с - средняя за 10 мин, порывы в срок и между сроками (в фигурных скобках) и направление, откуда дует ветер: С - северный, СВ - северо-восточный, В - восточный, ЮВ - юго-восточный, Ю - южный, ЮЗ - юго-западный, З - западный, СЗ - северо-западный.
Видимость - горизонтальная дальность видимости в метрах или километрах. При видимости от 1 до 10 км при отсутствии осадков обычно наблюдается дымка, при ухудшении видимости до 1 км и менее - туман. В сухую погоду видимость может ухудшаться дымом, пылью или мглою.
Явления - указаны атмосферные явления, наблюдавшиеся в срок или в последний час перед сроком; фигурными скобками обозначены явления, наблюдавшиеся между сроками (за 1-3 часа до срока); квадратными скобками обозначены град или гололедные отложения с указанием их диаметра в мм.
Облачность - указаны через наклонную черту общая и нижняя облачность в баллах и высота нижней границы облаков в метрах; квадратными скобками обозначены формы облаков: Ci - перистые, Cs - перисто-слоистые, Cc - перисто-кучевые, Ac - высококучевые, As - высокослоистые, Sc - слоисто-кучевые, Ns - слоисто-дождевые, Cu - кучевые, Cb - кучево-дождевые. Подробнее классификацию облаков см. в Атласе облаков (PDF).
T - Температура воздуха - температура, измеренная на высоте 2 м над землей.
Td - Температура точки росы - температура, при понижении до которой содержащийся в воздухе водяной пар достигнет насыщения.
f - Относительная влажность воздуха - влажноcть воздуха, измеренная на высоте 2 м над землей.
Te - Эффективная температура - температура, которую ощущает одетый по сезону человек в тени. Характеристика душности погоды. При расчете учитывается влияние влажности воздуха и скорости ветра на теплоощущения человека.
Tes - Эффективная температура на солнце - температура, которую ощущает человек, с поправкой на солнечный нагрев. Характеристика знойности погоды. Зависит от высоты солнца над горизонтом, облачности и скорости ветра. Ночью, в пасмурную погоду, а также при ветре 12 м/с и более поправка равна нулю.
P - Атмосферное давление - приведенное к уровню моря атмосферное давление.
Po - Атмосферное давление - измеренное на уровне метеостанции атмосферное давление.
Tmin - Минимальная температура - минимум температуры воздуха на высоте 2 м над землей.
Tmax - Максимальная температура - максимум температуры воздуха на высоте 2 м над землей.
R - Количество осадков - Количество выпавших осадков, мм. При наведении курсора мыши на число - период времени, за который выпало указанное количество осадков.
S - Снежный покров - Высота снежного покрова, см. При наведении курсора мыши на число - состояние снежного покрова и степень покрытия местности в баллах.